TimeMST,TemperatureF,Dew PointF,Humidity,Sea Level PressureIn,VisibilityMPH,Wind Direction,Wind SpeedMPH,Gust SpeedMPH,PrecipitationIn,Events,Conditions,WindDirDegrees,DateUTC
12:15 AM,44.6,17.6,34,30.39,10.0,North,3.5,-,N/A,,Clear,10,2013-11-07 07:15:00
12:35 AM,44.6,17.6,34,30.39,10.0,Calm,Calm,-,N/A,,Clear,0,2013-11-07 07:35:00
12:55 AM,44.6,17.6,34,30.39,10.0,North,4.6,-,N/A,,Clear,350,2013-11-07 07:55:00
1:35 AM,42.8,17.6,36,30.39,10.0,Calm,Calm,-,N/A,,Clear,0,2013-11-07 08:35:00
1:55 AM,41.0,17.6,39,30.39,10.0,SSW,5.8,-,N/A,,Clear,210,2013-11-07 08:55:00
2:15 AM,39.2,17.6,42,30.40,10.0,SW,4.6,-,N/A,,Clear,230,2013-11-07 09:15:00
2:35 AM,42.8,17.6,36,30.39,10.0,Calm,Calm,-,N/A,,Clear,0,2013-11-07 09:35:00
2:55 AM,39.2,15.8,39,30.39,10.0,SW,3.5,-,N/A,,Clear,220,2013-11-07 09:55:00
3:15 AM,39.2,17.6,42,30.39,10.0,Calm,Calm,-,N/A,,Clear,0,2013-11-07 10:15:00
3:35 AM,39.2,17.6,42,30.38,10.0,Calm,Calm,-,N/A,,Clear,0,2013-11-07 10:35:00
3:55 AM,41.0,17.6,39,30.38,10.0,Calm,Calm,-,N/A,,Clear,0,2013-11-07 10:55:00
4:35 AM,39.2,17.6,42,30.39,10.0,Calm,Calm,-,N/A,,Clear,0,2013-11-07 11:35:00
4:55 AM,37.4,17.6,45,30.39,10.0,Calm,Calm,-,N/A,,Clear,0,2013-11-07 11:55:00
5:15 AM,37.4,15.8,41,30.39,10.0,Calm,Calm,-,N/A,,Clear,0,2013-11-07 12:15:00
5:35 AM,37.4,17.6,45,30.39,10.0,Calm,Calm,-,N/A,,Clear,0,2013-11-07 12:35:00
5:55 AM,39.2,17.6,42,30.39,10.0,Calm,Calm,-,N/A,,Clear,0,2013-11-07 12:55:00
6:15 AM,39.2,17.6,42,30.39,10.0,Calm,Calm,-,N/A,,Clear,0,2013-11-07 13:15:00
6:55 AM,35.6,15.8,44,30.39,10.0,SSW,3.5,-,N/A,,Clear,200,2013-11-07 13:55:00
7:15 AM,35.6,15.8,44,30.39,10.0,Calm,Calm,-,N/A,,Clear,0,2013-11-07 14:15:00
7:35 AM,35.6,15.8,44,30.39,10.0,Calm,Calm,-,N/A,,Clear,0,2013-11-07 14:35:00
7:55 AM,37.4,17.6,45,30.39,10.0,Calm,Calm,-,N/A,,Clear,0,2013-11-07 14:55:00
8:15 AM,39.2,17.6,42,30.40,10.0,Calm,Calm,-,N/A,,Clear,0,2013-11-07 15:15:00
8:35 AM,39.2,17.6,42,30.40,10.0,Calm,Calm,-,N/A,,Clear,0,2013-11-07 15:35:00
8:55 AM,42.8,19.4,39,30.40,10.0,Calm,Calm,-,N/A,,Clear,0,2013-11-07 15:55:00
9:15 AM,44.6,19.4,37,30.40,10.0,Calm,Calm,-,N/A,,Clear,0,2013-11-07 16:15:00
9:55 AM,46.4,21.2,37,30.39,10.0,Calm,Calm,-,N/A,,Clear,0,2013-11-07 16:55:00
10:15 AM,48.2,21.2,34,30.38,10.0,Calm,Calm,-,N/A,,Clear,0,2013-11-07 17:15:00
10:35 AM,48.2,19.4,32,30.37,10.0,Calm,Calm,-,N/A,,Clear,0,2013-11-07 17:35:00
10:55 AM,51.8,21.2,30,30.37,10.0,Calm,Calm,-,N/A,,Clear,0,2013-11-07 17:55:00
11:35 AM,55.4,21.2,26,30.34,10.0,Calm,Calm,-,N/A,,Clear,0,2013-11-07 18:35:00
11:55 AM,57.2,21.2,25,30.33,10.0,Calm,Calm,-,N/A,,Clear,0,2013-11-07 18:55:00
12:15 PM,57.2,21.2,25,30.31,10.0,Calm,Calm,-,N/A,,Clear,0,2013-11-07 19:15:00
12:35 PM,60.8,23.0,23,30.29,10.0,Calm,Calm,-,N/A,,Clear,0,2013-11-07 19:35:00
1:15 PM,62.6,23.0,22,30.25,10.0,Calm,Calm,-,N/A,,Clear,0,2013-11-07 20:15:00
1:35 PM,62.6,21.2,20,30.25,10.0,Calm,Calm,-,N/A,,Clear,0,2013-11-07 20:35:00
1:55 PM,64.4,21.2,19,30.23,10.0,Calm,Calm,-,N/A,,Clear,0,2013-11-07 20:55:00
2:35 PM,66.2,21.2,18,30.21,10.0,North,4.6,-,N/A,,Clear,350,2013-11-07 21:35:00
2:55 PM,66.2,21.2,18,30.20,10.0,North,3.5,-,N/A,,Clear,350,2013-11-07 21:55:00
3:15 PM,68.0,21.2,17,30.19,10.0,NNW,3.5,-,N/A,,Clear,340,2013-11-07 22:15:00
3:35 PM,69.8,21.2,16,30.18,10.0,NNW,3.5,-,N/A,,Clear,340,2013-11-07 22:35:00
3:55 PM,68.0,21.2,17,30.18,10.0,WNW,3.5,-,N/A,,Clear,300,2013-11-07 22:55:00
4:15 PM,68.0,21.2,17,30.17,10.0,WNW,3.5,-,N/A,,Clear,290,2013-11-07 23:15:00
4:35 PM,66.2,21.2,18,30.17,10.0,West,4.6,-,N/A,,Clear,280,2013-11-07 23:35:00
4:55 PM,66.2,21.2,18,30.17,10.0,West,4.6,-,N/A,,Clear,260,2013-11-07 23:55:00
5:15 PM,66.2,21.2,18,30.16,10.0,West,3.5,-,N/A,,Clear,260,2013-11-08 00:15:00
5:35 PM,64.4,21.2,19,30.16,10.0,SW,5.8,-,N/A,,Clear,220,2013-11-08 00:35:00
5:55 PM,60.8,21.2,22,30.16,10.0,South,4.6,-,N/A,,Clear,170,2013-11-08 00:55:00
6:15 PM,60.8,19.4,20,30.16,10.0,South,4.6,-,N/A,,Clear,190,2013-11-08 01:15:00
6:35 PM,59.0,19.4,22,30.16,10.0,SSE,5.8,-,N/A,,Clear,160,2013-11-08 01:35:00
6:55 PM,59.0,19.4,22,30.16,10.0,South,3.5,-,N/A,,Clear,180,2013-11-08 01:55:00
7:15 PM,57.2,19.4,23,30.16,10.0,SSE,3.5,-,N/A,,Clear,150,2013-11-08 02:15:00
7:35 PM,55.4,19.4,25,30.16,10.0,Calm,Calm,-,N/A,,Clear,0,2013-11-08 02:35:00
7:55 PM,55.4,21.2,26,30.16,10.0,SSE,3.5,-,N/A,,Clear,160,2013-11-08 02:55:00
8:15 PM,55.4,21.2,26,30.16,10.0,South,4.6,-,N/A,,Clear,170,2013-11-08 03:15:00
8:35 PM,53.6,19.4,26,30.16,10.0,SE,6.9,-,N/A,,Clear,140,2013-11-08 03:35:00
8:55 PM,53.6,19.4,26,30.16,10.0,SSE,4.6,-,N/A,,Clear,150,2013-11-08 03:55:00
9:15 PM,51.8,19.4,28,30.16,10.0,SE,8.1,-,N/A,,Clear,130,2013-11-08 04:15:00
9:35 PM,55.4,19.4,25,30.16,10.0,East,4.6,-,N/A,,Clear,90,2013-11-08 04:35:00
9:55 PM,55.4,19.4,25,30.16,10.0,ESE,6.9,-,N/A,,Clear,120,2013-11-08 04:55:00
10:35 PM,53.6,19.4,26,30.16,10.0,East,4.6,-,N/A,,Clear,100,2013-11-08 05:35:00
10:55 PM,55.4,19.4,25,30.17,10.0,ENE,5.8,-,N/A,,Clear,70,2013-11-08 05:55:00
11:15 PM,51.8,19.4,28,30.16,10.0,SSE,4.6,-,N/A,,Clear,160,2013-11-08 06:15:00
11:35 PM,51.8,17.6,26,30.16,10.0,South,4.6,-,N/A,,Clear,180,2013-11-08 06:35:00
11:55 PM,51.8,19.4,28,30.16,10.0,Calm,Calm,-,N/A,,Clear,0,2013-11-08 06:55:00